DW6597 Ellesmere UK current weather conditions

sailwx.info

Wind from 080

Air temperature 15.6° C
Dewpoint 15.6° C

Last reported at 2019-Aug-22 04:00 UTC.
Time now 2019-Aug-22 04:32 UTC

Location: N 54°30' W 002°30'.
View on Google Maps.

See reports from other nearby stations

  
Tides and Currents Weather Stations Pressure Air Temp Water Temp Dewpoint Dewpoint Depression Visibility Wind Speed Wind Dir Waves Ship Positions
date/time (UTC)wind fromknots sea level pressurealtimeterstation pressurevisibilityair tempwater tempwave heightnotes
2019-Aug-22 04:00 080 15.6
2019-Aug-22 03:45 106 1 gusting 8 15.6
2019-Aug-22 03:30 089 1 gusting 9 15.6
2019-Aug-22 03:17 093 15.6
2019-Aug-22 03:01 090 0 gusting 7 15.6
2019-Aug-22 02:46 091 0 gusting 6 15.6
2019-Aug-22 02:32 092 1 gusting 6 15.6
2019-Aug-22 02:16 095 3 gusting 8 15.6
2019-Aug-22 02:01 088 15.0
2019-Aug-22 01:46 096 15.0
2019-Aug-22 01:31 097 1 gusting 7 15.0
2019-Aug-22 01:15 082 1 gusting 6 15.0
2019-Aug-22 01:00 086 2 gusting 7 14.4
2019-Aug-22 00:45 093 0 gusting 6 14.4
2019-Aug-22 00:30 096 0 gusting 6 15.0
2019-Aug-22 00:15 093 2 gusting 7 15.0
2019-Aug-22 00:02 101 1 gusting 8 15.0
2019-Aug-21 23:46 092 2 gusting 12 15.0
2019-Aug-21 23:31 097 1 gusting 9 15.0
2019-Aug-21 23:16 094 4 gusting 9 15.0
2019-Aug-21 23:01 093 0 gusting 6 15.0
2019-Aug-21 22:46 098 1 gusting 8 15.0
2019-Aug-21 22:30 106 3 gusting 9 15.0
2019-Aug-21 22:15 091 1 gusting 9 15.6
2019-Aug-21 22:00 089 1 gusting 12 15.6
2019-Aug-21 21:45 094 2 gusting 8 15.6
2019-Aug-21 21:30 090 3 gusting 11 16.1
2019-Aug-21 21:15 090 2 gusting 11 16.1
2019-Aug-21 21:00 088 4 gusting 7 16.1
2019-Aug-21 20:45 105 3 gusting 9 16.1
2019-Aug-21 20:32 098 4 gusting 12 16.1
2019-Aug-21 20:17 096 3 gusting 13 16.7
2019-Aug-21 20:03 092 1 gusting 8 16.7
2019-Aug-21 19:47 092 1 gusting 6 16.7
2019-Aug-21 19:32 086 16.7
2019-Aug-21 19:16 109 0 gusting 6 17.2
2019-Aug-21 19:00 096 0 gusting 6 17.2
2019-Aug-21 18:45 086 0 gusting 6 17.8
2019-Aug-21 18:31 082 0 gusting 6 17.8
2019-Aug-21 18:15 100 3 gusting 9 17.8
2019-Aug-21 18:00 097 1 gusting 6 18.3
2019-Aug-21 17:45 098 4 gusting 12 18.3
2019-Aug-21 17:30 108 4 gusting 9 18.3
2019-Aug-21 17:15 102 4 gusting 9 18.3
2019-Aug-21 17:02 096 3 gusting 11 18.3
2019-Aug-21 16:46 104 5 gusting 14 18.3
2019-Aug-21 16:31 104 2 gusting 10 18.3
2019-Aug-21 16:16 084 18.3
2019-Aug-21 16:00 093 4 gusting 11 18.3
2019-Aug-21 15:46 022 2 gusting 10 18.3
2019-Aug-21 15:31 082 1 gusting 10 18.3
2019-Aug-21 15:16 145 18.3
2019-Aug-21 15:00 178 18.9
2019-Aug-21 14:45 118 1 gusting 8 20.0
2019-Aug-21 14:30 086 0 gusting 9 20.0
2019-Aug-21 14:15 076 3 gusting 10 20.6
2019-Aug-21 14:00 107 1 gusting 19 20.6
2019-Aug-21 13:46 086 6 gusting 14 20.6
2019-Aug-21 13:32 094 0 gusting 6 20.6
2019-Aug-21 13:18 095 1 gusting 13 21.1
2019-Aug-21 13:01 107 3 gusting 11 20.6
2019-Aug-21 12:46 090 3 gusting 15 20.0
2019-Aug-21 12:30 093 7 gusting 14 19.4
2019-Aug-21 12:16 096 9 gusting 18 20.0
2019-Aug-21 12:01 070 4 gusting 11 20.6
2019-Aug-21 11:45 098 0 gusting 13 20.6
2019-Aug-21 11:30 090 0 gusting 9 20.0
2019-Aug-21 11:15 098 6 gusting 13 20.0
2019-Aug-21 11:01 092 2 gusting 11 20.0
2019-Aug-21 10:45 176 0 gusting 9 20.0
2019-Aug-21 10:30 101 20.0
2019-Aug-21 10:17 092 0 gusting 6 19.4
2019-Aug-21 10:01 105 3 gusting 12 18.9
2019-Aug-21 09:46 091 1 gusting 7 18.3
2019-Aug-21 09:32 112 0 gusting 6 17.8
2019-Aug-21 09:16 084 17.8
2019-Aug-21 09:01 113 17.2
2019-Aug-21 08:46 176 0 gusting 8 16.7
2019-Aug-21 08:30 193 2 gusting 9 15.6
2019-Aug-21 08:15 161 0 gusting 8 15.0
2019-Aug-21 08:00 132 0 gusting 6 14.4
2019-Aug-21 07:45 175 0 gusting 8 14.4
2019-Aug-21 07:30 086 0 gusting 5 13.3
2019-Aug-21 07:15 085 1 gusting 4 13.3
2019-Aug-21 07:00 090 0 gusting 5 13.3
2019-Aug-21 06:47 094 13.3
2019-Aug-21 06:32 082 12.8
2019-Aug-21 06:16 128 12.8
2019-Aug-21 06:01 135 12.8
2019-Aug-21 05:46 105 12.8
2019-Aug-21 05:30 108 12.8
2019-Aug-21 05:15 094 12.2
2019-Aug-21 05:00 109 12.2
2019-Aug-21 04:45 167 12.2
2019-Aug-21 04:30 157 12.2
2019-Aug-21 04:15 157 12.2
2019-Aug-21 04:00 121 12.2
2019-Aug-21 03:45 141 12.2
2019-Aug-21 03:32 150 12.2
2019-Aug-21 03:17 090 12.2
2019-Aug-21 03:01 096 12.2
2019-Aug-21 02:46 169 12.2
2019-Aug-21 02:30 075 12.2
2019-Aug-21 02:16 072 12.2
2019-Aug-21 02:01 087 12.2
2019-Aug-21 01:46 087 12.2
2019-Aug-21 01:31 086 12.2
2019-Aug-21 01:15 086 12.2
2019-Aug-21 01:00 086 12.2
2019-Aug-21 00:45 086 1 gusting 4 12.2
2019-Aug-21 00:30 086 12.8
2019-Aug-21 00:15 084 1 gusting 6 12.2
2019-Aug-21 00:02 084 0 gusting 5 12.2
2019-Aug-20 23:47 084 12.8
2019-Aug-20 23:31 084 1 gusting 6 12.8
2019-Aug-20 23:16 083 12.8
2019-Aug-20 23:01 083 13.3
2019-Aug-20 22:46 082 1 gusting 6 13.3
2019-Aug-20 22:31 086 1 gusting 5 13.3
2019-Aug-20 22:15 086 1 gusting 5 13.3
2019-Aug-20 22:01 090 13.3
2019-Aug-20 21:45 088 0 gusting 6 13.9
2019-Aug-20 21:30 090 2 gusting 7 13.9
2019-Aug-20 21:15 090 1 gusting 6 14.4
2019-Aug-20 21:00 091 0 gusting 5 14.4
2019-Aug-20 20:45 086 1 gusting 5 14.4
2019-Aug-20 20:32 083 15.0
2019-Aug-20 20:16 092 0 gusting 6 15.0
2019-Aug-20 20:01 093 15.0
2019-Aug-20 19:45 090 15.6
2019-Aug-20 19:32 093 15.6
2019-Aug-20 19:16 086 15.6
2019-Aug-20 19:01 063 16.1
2019-Aug-20 18:45 089 16.1
2019-Aug-20 18:31 077 16.1
2019-Aug-20 18:15 087 16.1
2019-Aug-20 18:00 170 16.1
2019-Aug-20 17:45 147 0 gusting 6 16.1
2019-Aug-20 17:30 157 16.1
2019-Aug-20 17:02 148 17.2
2019-Aug-20 16:47 107 17.2
2019-Aug-20 16:33 180 0 gusting 4 17.8
2019-Aug-20 16:16 102 18.9
2019-Aug-20 16:01 182 19.4
2019-Aug-20 15:46 106 20.0
2019-Aug-20 15:31 238 19.4
2019-Aug-20 15:15 073 19.4
2019-Aug-20 15:00 165 19.4
2019-Aug-20 14:46 167 19.4
2019-Aug-20 14:30 215 18.3
2019-Aug-20 14:15 193 1 gusting 6 18.3
2019-Aug-20 14:00 175 0 gusting 8 18.9
2019-Aug-20 13:47 168 18.9
2019-Aug-20 13:31 093 0 gusting 7 18.3
2019-Aug-20 13:16 098 1 gusting 6 17.8
2019-Aug-20 13:01 219 0 gusting 6 17.8
2019-Aug-20 12:47 234 0 gusting 6 17.2
2019-Aug-20 12:31 165 0 gusting 5 16.7
2019-Aug-20 12:16 207 1 gusting 9 16.7
2019-Aug-20 12:00 165 3 gusting 10 16.7
2019-Aug-20 11:45 224 16.1
2019-Aug-20 11:30 182 0 gusting 7 16.7
2019-Aug-20 11:15 168 16.7
2019-Aug-20 11:00 178 17.2
2019-Aug-20 10:45 197 1 gusting 6 16.7
2019-Aug-20 10:30 200 1 gusting 8 16.1
2019-Aug-20 10:17 136 0 gusting 8 16.1
2019-Aug-20 10:02 216 0 gusting 6 15.6
2019-Aug-20 09:46 229 4 gusting 7 15.0
2019-Aug-20 09:31 233 0 gusting 6 15.0
2019-Aug-20 09:15 198 0 gusting 7 14.4
2019-Aug-20 09:01 215 0 gusting 6 15.0
2019-Aug-20 08:46 175 5 gusting 8 14.4
2019-Aug-20 08:31 212 5 gusting 10 14.4
2019-Aug-20 08:15 210 1 gusting 8 13.9
2019-Aug-20 08:00 189 0 gusting 6 13.9
2019-Aug-20 07:45 097 12.8
2019-Aug-20 07:30 138 12.2
2019-Aug-20 07:15 138 12.2
2019-Aug-20 07:00 140 12.2
2019-Aug-20 06:46 180 11.7
2019-Aug-20 06:31 180 11.7
2019-Aug-20 06:16 180 11.7
2019-Aug-20 06:01 186 11.1
2019-Aug-20 05:46 172 11.1
2019-Aug-20 05:31 200 11.1
2019-Aug-20 05:15 175 11.1
2019-Aug-20 05:00 189 11.1
2019-Aug-20 04:45 186 11.1
2019-Aug-20 04:30 201 11.1
2019-Aug-20 04:15 173 11.1
2019-Aug-20 04:00 131 11.1